Flag for Canada Weather past 2 weeks in Winnipeg, Manitoba, Canada

Now
26 °F

Chilly.


Feels Like: 19 °F
Forecast: 19 / 33 °F
Wind: 6 mph from Southwest

Location: Winnipeg The Forks

Current Time: Jan 27, 2015 at 12:22:42 AM

Latest Report: Jan 27, 2015 at 12:00 AM


Visibility: N/A

Pressure: 30.03 "Hg

Humidity: 84%

Dew point: 22 °F

Location of WinnipegLocation

Historic Weather in Winnipeg — Graph

°F

Winnipeg temperature yesterday

Maximum temperature yesterday: 36 °F (at 5:00 AM)
Minimum temperature yesterday: 24 °F (at 10:00 PM)
Average temperature yesterday: 29 °F

Past Weeks' High & Low Weather Summary

 TemperatureHumidityPressure
High40 °F (Jan 23, 3:00 PM)100% (Jan 20, 2:00 PM)30.88 "Hg (Jan 20, 2:00 PM)
Low-16 °F (Jan 12, 8:00 AM)57% (Jan 12, 2:00 PM)29.34 "Hg (Jan 17, 3:00 AM)
Average17 °F77%30.01 "Hg
* Reported Jan 11 11:00 PM — Jan 26 11:00 PM, Winnipeg, Weather by CustomWeather, © 2014

Note: Actual official high and low records may vary slightly from our data, if they occured in-between our weather recording intervals... More about our weather records

Advertising

Winnipeg weather history for previous 24 hours

 ConditionsComfort  
Time TempWeatherWind HumidityBarometerVisibility
11:00 PM
Jan 26
26 °FChilly.1 mph84%30.03 "HgN/A
10:00 PM24 °FCold.6 mph89%30.02 "HgN/A
9:00 PM25 °FChilly.3 mph83%30.01 "HgN/A
8:00 PM26 °FChilly.5 mph84%30.01 "HgN/A
7:00 PM28 °FChilly.5 mph76%29.99 "HgN/A
6:00 PM26 °FChilly.2 mph82%29.99 "HgN/A
5:00 PM26 °FChilly.1 mph81%29.97 "HgN/A
4:00 PM26 °FChilly.7 mph81%29.97 "HgN/A
3:00 PM26 °FChilly.7 mph82%29.93 "HgN/A
2:00 PM26 °FChilly.14 mph79%29.92 "HgN/A
1:00 PM27 °FChilly.14 mph82%29.90 "HgN/A
12:00 PM29 °FChilly.17 mph76%29.88 "HgN/A
11:00 AM28 °FChilly.20 mph82%29.85 "HgN/A
10:00 AM31 °FChilly.17 mph78%29.81 "HgN/A
9:00 AM32 °FChilly.24 mph79%29.75 "HgN/A
8:00 AM35 °FChilly.16 mph81%29.68 "HgN/A
7:00 AM35 °FChilly.14 mph88%29.64 "HgN/A
6:00 AM36 °FChilly.10 mph88%29.61 "HgN/A
5:00 AM36 °FChilly.8 mph81%29.59 "HgN/A
4:00 AM34 °FChilly.6 mph80%29.58 "HgN/A
3:00 AM32 °FChilly.8 mph83%29.57 "HgN/A
2:00 AM30 °FChilly.8 mph85%29.56 "HgN/A
1:00 AM29 °FChilly.12 mph86%29.57 "HgN/A
12:00 AM28 °FChilly.13 mph87%29.59 "HgN/A
Weather by CustomWeather, © 2014

See weather overviewHow to use our weather pages